Wind_Speed
29 29 28 28 28 28 27 26 26 26 25 25 24 23 23 23 22 21 20 19 21 22 22 21 21 20 20 20 19 18 17 16 16 15 15 14 14 14 14 14 15 15 14 15 16 18 18 19 22 22 20 20 19 19 20 20 20 20 20 21 21 20 20 20 19 19 19 19 19 19 19 18 18 17 17 16 16 15 15 14 14 15 15 15 13
29 28 28 27 28 28 27 26 26 26 26 25 24 23 23 22 22 21 20 20 20 22 21 21 20 20 20 19 19 18 17 16 16 16 15 14 14 14 14 14 15 15 15 16 17 18 19 20 23 23 21 21 22 22 22 22 22 21 20 20 20 20 20 19 19 18 18 19 19 19 19 18 18 17 17 17 16 15 15 14 13 14 14 14 13
27 28 28 27 28 27 28 27 26 26 26 25 24 23 22 22 21 21 20 20 20 21 21 20 20 20 20 19 19 18 17 16 16 16 15 14 14 13 13 14 15 15 15 17 18 18 19 21 23 24 22 22 22 22 23 23 23 22 22 21 20 20 20 19 18 17 17 18 18 18 18 18 18 17 16 16 15 14 13 12 12 12 12 11 12
24 27 28 27 28 27 28 27 27 26 26 25 24 22 22 21 21 20 20 20 20 21 20 19 19 19 19 19 18 18 17 16 16 15 15 14 14 13 12 13 15 16 17 18 18 18 20 21 23 25 23 23 23 23 23 23 24 23 23 23 22 21 20 19 18 17 16 16 16 17 17 17 17 16 15 13 12 12 11 10 10 9 9 9 9
24 27 27 27 28 27 28 27 27 26 26 25 24 22 21 21 20 20 19 19 19 20 20 19 18 19 19 19 18 17 17 16 15 15 14 14 14 13 12 13 14 16 18 19 19 20 21 22 25 25 25 25 25 25 24 23 23 23 23 23 22 21 19 19 17 16 15 14 14 15 16 16 16 14 11 10 9 9 8 7 6 5 5 5 6
23 26 27 27 27 27 27 27 27 26 25 24 23 22 21 20 19 19 19 19 19 19 19 19 18 18 18 18 18 17 16 16 15 14 14 14 13 12 12 12 14 16 18 19 20 21 21 24 26 27 27 27 27 26 25 24 23 22 21 20 20 19 18 17 17 15 14 13 12 12 13 13 13 11 8 6 6 6 6 5 4 4 4 4 4
23 26 26 27 27 28 27 27 26 25 24 24 23 22 21 20 19 18 18 18 18 18 18 18 17 18 18 17 17 16 15 15 15 14 14 14 13 12 12 12 14 16 17 19 20 21 22 25 27 29 29 28 27 25 24 23 22 21 20 19 18 17 16 15 14 14 13 12 10 9 10 10 9 8 6 5 6 7 7 7 6 5 5 4 3
23 25 26 26 27 28 27 27 26 25 24 23 22 22 21 20 19 18 18 18 17 17 17 17 17 17 17 17 16 15 15 15 15 14 14 13 13 13 12 12 13 15 17 18 19 21 23 25 28 29 28 27 26 24 24 23 22 20 18 16 14 14 14 14 11 11 13 12 10 8 6 7 6 6 6 7 8 8 8 8 7 6 6 5 6
24 25 26 26 27 27 27 26 26 25 24 22 22 21 21 20 19 18 17 17 17 16 16 16 16 16 16 16 15 14 14 14 14 14 14 14 13 13 12 12 12 14 16 17 19 20 22 25 28 29 27 26 25 24 23 23 21 19 17 13 11 11 13 13 10 11 13 13 11 9 6 5 4 5 9 9 10 9 9 8 7 7 8 9 11
24 26 27 27 27 27 27 25 25 24 23 22 22 21 20 20 19 18 17 16 16 15 15 15 15 15 14 15 14 14 13 13 13 14 15 14 13 13 12 12 11 12 15 16 17 20 21 24 27 28 26 25 24 24 23 22 20 18 14 10 9 11 11 11 10 10 11 10 9 7 7 5 3 8 11 11 11 10 11 11 10 10 12 15 16
23 26 27 27 27 26 26 24 24 23 23 23 21 21 20 20 19 18 17 16 16 15 15 14 14 14 13 13 14 13 13 12 12 12 14 15 14 13 13 12 12 12 13 15 17 19 20 23 26 27 26 25 24 23 22 20 18 15 12 9 9 10 9 10 9 9 8 7 6 6 8 5 5 10 12 11 11 11 13 14 14 14 16 18 17
25 27 27 26 26 25 25 23 23 23 22 22 21 20 20 19 19 18 17 16 15 15 15 14 14 14 13 13 13 13 12 12 11 11 13 15 14 14 13 12 12 12 12 15 16 17 19 21 24 26 25 24 24 23 21 18 16 13 10 9 9 9 8 9 9 9 6 6 6 6 8 5 7 10 12 12 11 12 14 15 16 16 16 18 17
27 27 27 26 25 25 24 23 22 23 22 22 21 20 19 19 18 17 16 16 15 15 14 14 14 13 13 12 12 11 11 11 11 12 12 13 14 13 13 12 12 13 12 14 16 16 18 20 22 24 24 24 24 22 19 17 15 13 10 8 9 9 7 8 8 7 6 6 6 6 6 5 10 11 12 12 12 14 15 15 16 17 17 17 16
29 28 27 26 25 24 24 23 23 22 22 21 20 19 18 17 17 17 16 16 15 14 14 14 14 13 13 12 11 11 10 11 11 12 13 13 14 13 13 12 13 12 13 14 15 15 16 19 21 22 23 25 24 20 18 17 15 13 10 8 8 7 8 8 8 7 7 6 4 4 3 8 12 13 13 13 14 15 15 16 16 16 17 16 15
29 28 27 26 25 24 23 22 21 20 20 19 19 18 17 17 16 16 16 15 15 14 14 14 14 13 13 12 11 10 10 11 11 12 13 14 14 14 13 12 13 12 13 14 14 15 15 18 20 22 25 26 22 19 17 15 13 12 11 8 7 7 9 10 11 10 9 6 3 3 6 11 13 13 14 14 15 15 15 16 16 16 16 16 15
26 26 26 25 25 24 22 21 19 18 18 18 18 18 17 17 17 17 17 16 15 15 15 14 13 13 13 12 11 10 10 11 11 12 14 15 14 14 13 12 12 12 14 14 14 14 15 18 21 24 27 25 20 18 16 13 11 10 9 7 7 9 10 12 13 12 11 10 8 7 9 12 13 13 13 14 14 14 15 15 15 16 15 16 16
23 24 24 24 24 23 21 19 18 17 17 17 17 17 17 18 18 18 18 18 16 15 15 14 14 14 13 12 11 11 11 12 12 13 15 15 14 13 12 11 12 13 14 15 15 14 15 18 22 26 27 23 20 18 15 11 9 8 7 7 8 10 12 13 13 12 11 11 9 8 9 10 12 13 12 13 14 14 15 15 15 15 15 15 15
23 23 24 24 24 23 21 20 19 18 18 18 18 17 18 18 17 18 18 18 17 16 15 15 15 14 13 12 12 12 13 12 12 14 15 15 14 13 13 11 11 13 14 15 15 15 16 19 24 27 27 23 21 18 14 10 7 7 7 8 9 10 12 13 13 12 10 10 9 8 7 8 10 11 12 12 13 14 14 14 14 14 14 14 14
23 23 23 24 25 24 23 22 21 20 19 19 19 18 18 17 17 18 19 18 17 16 16 15 15 15 14 14 14 14 14 13 13 15 15 15 14 13 12 10 11 13 14 14 15 15 17 21 25 27 26 23 22 18 14 10 7 6 7 8 9 11 11 12 13 12 10 9 9 8 6 7 8 10 10 11 12 13 13 13 13 13 13 13 13
24 25 24 24 24 24 23 21 20 19 19 20 19 19 18 17 18 18 19 18 18 17 16 16 16 16 16 16 15 15 16 15 15 15 15 14 14 13 11 9 11 13 14 14 15 15 17 21 24 25 24 23 22 19 15 10 6 4 6 7 8 9 10 11 12 11 10 10 9 8 7 6 6 7 9 10 11 11 11 12 11 11 12 12 12
27 26 26 24 23 21 19 19 19 19 20 20 20 19 18 19 19 19 19 19 19 18 17 17 17 18 18 17 16 16 16 15 15 15 14 14 13 13 11 10 11 13 14 14 15 15 16 19 22 23 22 21 21 19 15 11 6 3 4 6 6 7 9 10 11 11 9 9 9 8 7 6 5 6 7 8 9 9 9 10 10 10 10 10 11
29 28 26 23 22 19 16 16 18 21 23 22 21 20 20 20 20 21 21 21 20 19 18 18 19 20 20 18 17 16 15 15 14 13 13 13 12 12 12 11 12 13 14 15 15 15 16 18 20 20 19 20 21 19 15 11 7 4 3 5 5 6 8 9 11 12 9 8 8 7 7 6 5 5 6 6 7 7 8 8 9 9 9 9 9
31 29 26 24 21 20 21 22 22 23 25 24 23 21 21 21 22 22 22 22 22 20 20 19 20 22 21 19 18 16 14 14 13 12 12 12 12 12 12 11 11 13 14 15 15 15 15 17 19 19 20 20 20 18 15 11 7 3 2 3 4 5 7 8 10 12 10 7 6 6 6 5 5 5 5 5 5 6 6 7 7 7 8 8 8
30 26 24 24 23 23 25 27 27 26 25 25 24 21 20 21 21 22 22 23 23 22 21 20 22 23 21 19 19 17 15 14 12 11 11 12 12 13 13 12 11 12 15 16 16 16 15 16 18 20 21 20 18 16 14 11 7 4 2 1 2 3 5 6 8 10 11 8 6 5 4 4 4 4 4 4 5 6 6 6 6 6 6 7 7
26 26 24 23 22 23 22 23 26 26 25 24 22 20 20 20 21 22 22 23 23 23 22 21 22 23 21 20 18 18 16 14 12 11 10 10 11 12 13 12 12 12 15 17 16 16 16 16 17 19 20 17 15 14 13 10 7 5 3 2 1 2 3 5 6 8 9 7 6 5 4 3 3 3 4 4 5 5 6 6 5 5 5 6 6
25 26 24 22 22 24 23 21 24 26 25 23 21 20 20 21 22 23 23 23 24 24 23 22 23 23 22 19 18 18 17 15 13 12 11 9 9 11 11 11 12 13 16 18 17 17 17 16 16 17 18 16 14 13 12 10 8 6 5 3 3 2 2 3 5 7 8 7 5 4 4 3 2 2 3 3 4 5 5 5 5 5 5 5 6
26 26 27 28 26 26 25 22 23 25 25 23 22 21 21 21 22 23 23 24 24 24 24 23 23 23 21 19 18 18 16 14 14 13 11 10 9 10 11 11 12 14 17 19 19 17 17 16 16 16 16 15 13 12 11 9 8 7 6 5 4 4 4 4 4 5 7 6 5 4 3 3 2 2 1 2 3 3 4 4 4 5 5 5 6
24 28 31 31 27 25 25 24 23 23 24 23 23 23 22 22 22 23 23 24 24 23 23 23 23 22 20 18 18 17 15 14 14 13 12 11 10 10 11 11 12 14 17 20 20 18 17 16 15 15 14 13 12 11 9 8 8 8 7 6 5 6 6 6 4 4 5 5 4 3 3 2 2 1 0 1 2 2 3 3 4 4 5 5 6
20 22 27 29 28 25 24 25 24 24 25 24 24 24 23 22 23 23 23 23 22 22 22 21 22 21 19 19 18 16 14 14 15 14 12 11 11 10 10 11 12 14 16 18 19 18 17 16 14 13 12 12 12 10 8 6 7 9 9 7 7 7 8 8 6 4 3 3 2 2 3 2 2 1 1 1 2 2 3 3 4 4 4 5 5
18 18 23 28 28 27 25 26 24 24 26 25 25 25 24 23 23 22 22 22 22 21 21 21 20 20 19 19 18 16 14 14 15 14 13 11 11 12 12 13 15 15 15 16 17 17 16 15 14 13 13 12 11 9 8 7 7 9 9 9 9 10 10 8 5 3 1 2 2 3 3 3 2 2 2 1 2 2 3 3 4 4 4 5 6
18 18 23 27 27 27 26 25 25 25 27 26 26 26 24 23 23 22 22 23 22 21 21 20 20 19 18 18 18 16 15 14 15 14 13 12 13 15 15 16 17 18 17 16 16 16 16 14 14 15 15 13 11 9 8 7 7 8 9 10 11 11 10 8 6 4 3 2 2 3 3 4 3 2 2 1 3 3 4 4 5 5 6 7 8
18 19 23 26 27 26 26 25 26 26 27 26 26 25 23 23 23 22 22 23 22 22 21 20 20 19 18 18 17 16 16 15 15 14 13 14 15 16 17 17 17 17 16 16 15 15 15 14 14 15 15 13 11 10 8 8 7 6 8 10 11 11 9 8 8 6 5 4 3 2 2 3 3 3 2 2 4 5 5 6 7 8 9 10 11
17 18 21 24 25 26 26 26 26 27 27 27 26 25 23 22 22 22 22 22 22 22 21 20 19 19 19 18 17 17 16 16 15 15 14 15 16 16 17 16 15 14 13 14 13 13 12 12 12 12 13 12 10 9 9 9 7 5 6 8 10 9 8 9 8 7 6 4 3 2 1 2 2 2 2 3 5 7 9 10 10 11 11 11 12
16 18 19 21 23 25 26 26 27 27 27 27 26 25 23 22 23 22 22 22 22 22 20 19 19 19 19 19 18 17 16 17 16 15 15 15 15 15 14 13 13 12 11 12 12 12 11 11 12 11 11 10 8 9 9 9 7 5 5 6 8 8 7 8 7 7 6 4 3 2 1 1 2 2 2 5 7 10 12 12 12 12 11 11 11
16 17 17 18 21 24 25 26 26 27 28 27 26 25 24 23 23 22 22 21 21 21 20 19 19 19 20 19 18 17 17 18 17 17 17 16 15 15 14 12 11 12 12 12 14 14 13 13 13 11 11 10 9 10 10 9 7 6 6 7 8 7 7 7 7 8 7 5 4 3 2 1 2 2 3 6 9 11 12 12 11 11 10 9 8
17 16 16 18 20 23 25 26 26 28 28 27 26 25 25 24 23 22 22 21 20 20 20 19 19 20 20 19 18 17 17 18 18 19 18 17 16 15 14 13 12 12 13 14 15 16 16 15 13 11 11 11 10 10 11 10 8 7 6 7 7 7 8 8 7 9 9 7 6 5 3 2 2 2 5 7 8 11 12 11 10 9 7 5 4
16 15 16 17 19 22 24 25 26 28 29 27 26 26 26 25 23 22 22 20 19 19 19 19 20 21 21 20 20 19 18 19 21 20 19 17 16 15 14 13 13 13 14 15 15 16 15 14 14 12 10 10 10 10 10 9 8 6 6 6 6 6 7 7 8 9 9 8 7 5 4 3 3 4 6 7 7 10 10 9 8 7 6 5 4
15 15 15 17 19 20 22 25 27 29 30 28 27 28 26 25 24 23 22 20 19 19 19 20 21 21 21 21 20 20 19 21 22 21 19 17 16 15 14 14 14 13 13 14 15 15 14 13 13 12 10 9 9 9 9 9 7 6 7 7 6 6 7 7 8 9 9 8 7 6 5 4 5 6 7 8 8 9 9 8 7 7 6 5 4
16 15 16 18 19 20 22 25 28 31 30 28 29 29 26 25 25 23 23 22 21 21 20 21 22 21 22 21 21 21 21 22 22 21 19 17 16 15 14 15 15 14 14 15 16 17 15 14 13 12 11 9 7 8 9 9 8 7 7 8 7 6 6 7 8 8 9 8 8 8 7 6 7 7 7 8 9 8 7 7 7 6 5 5 4
17 16 17 19 21 21 22 26 30 30 29 28 29 28 27 27 26 24 24 23 22 22 21 21 21 22 22 21 22 23 22 22 21 20 20 18 17 16 16 16 16 15 14 15 18 17 15 15 14 12 12 11 9 8 9 9 8 8 8 7 7 7 6 6 7 8 9 9 8 9 8 8 9 8 8 8 8 7 7 7 6 5 5 4 4
19 18 17 19 21 21 23 27 29 29 28 28 29 28 28 29 28 26 25 23 23 22 20 20 20 21 21 21 23 23 22 22 20 20 20 19 18 17 18 18 16 14 14 16 17 16 14 13 13 12 13 12 11 10 10 9 8 8 9 8 7 7 6 6 6 7 8 7 8 9 8 8 9 9 8 7 7 7 7 6 5 5 4 4 4
21 20 18 18 20 22 23 26 27 28 29 27 28 30 29 30 29 27 25 23 22 20 19 19 20 20 21 22 23 23 21 20 20 20 20 19 18 18 19 18 16 15 15 17 17 15 14 13 13 13 13 11 10 11 11 9 8 7 8 8 8 8 6 5 5 5 6 6 7 8 7 7 9 9 8 7 7 6 6 5 4 4 4 4 5
20 20 19 18 19 22 24 25 26 28 30 26 27 30 30 30 28 25 23 22 21 20 19 19 19 20 21 23 24 24 22 20 21 21 20 20 18 18 19 18 17 16 16 17 16 15 14 14 14 13 13 11 10 11 11 10 9 8 9 9 9 9 7 5 5 5 6 7 7 8 7 9 10 10 8 7 7 6 6 5 4 4 5 5 5
22 21 21 18 17 21 24 25 26 28 29 27 26 29 30 28 25 23 22 21 20 20 20 20 20 20 22 23 24 24 23 22 21 20 20 20 18 18 19 18 17 16 15 15 15 15 14 14 14 13 13 14 13 13 12 12 10 9 10 9 8 9 8 8 9 7 7 8 8 9 8 9 10 9 8 8 8 7 6 5 5 5 5 5 5
23 22 21 17 15 20 24 25 26 27 28 27 26 27 28 26 24 24 23 22 21 21 22 23 22 22 23 23 24 23 23 23 21 20 20 19 18 18 19 18 16 15 14 14 13 14 14 13 13 13 14 14 14 14 14 13 10 9 10 7 7 8 9 11 11 8 8 9 8 8 9 9 8 8 8 8 7 6 6 6 6 5 5 5 6
24 22 18 14 15 21 23 24 25 26 27 26 25 24 26 27 26 25 24 24 24 23 24 24 23 24 24 23 23 23 23 23 21 20 20 18 18 18 18 17 15 14 14 13 13 14 14 13 13 14 14 14 13 13 14 14 12 11 11 9 6 6 9 13 13 10 9 9 9 9 10 10 9 9 9 8 6 6 7 7 6 6 5 6 7
24 21 17 14 17 20 21 22 24 26 27 26 23 22 24 27 26 24 24 25 24 23 24 24 23 23 23 22 23 24 24 23 22 21 20 19 18 18 18 16 13 13 15 14 15 15 15 15 15 15 15 15 15 14 15 15 14 14 13 11 9 6 7 11 12 12 13 12 10 11 11 11 12 11 9 8 7 7 8 8 7 7 6 7 8
24 22 19 17 19 18 19 21 22 24 26 24 23 22 24 26 25 24 25 24 21 19 21 24 23 23 23 22 23 24 25 24 22 21 21 20 19 19 18 16 13 14 16 16 16 17 17 17 17 16 16 16 16 14 15 16 16 15 14 12 10 7 8 10 9 11 14 16 15 13 13 13 13 12 10 10 8 8 9 9 8 8 8 8 7
24 22 20 20 19 18 19 21 23 25 25 24 23 22 24 25 24 24 24 23 20 18 19 23 24 23 23 22 22 24 25 24 22 21 20 19 18 18 18 16 15 16 17 17 17 18 18 18 18 18 17 17 16 13 14 15 15 14 14 14 10 8 10 11 10 11 13 17 18 16 16 16 15 13 12 11 10 9 9 9 9 9 8 7 6
23 22 20 20 20 20 21 22 24 26 26 25 24 23 24 26 24 24 24 23 22 21 21 23 25 23 22 23 22 24 25 23 21 20 19 18 18 18 18 17 17 18 18 18 18 18 18 17 18 19 18 17 17 15 14 14 14 14 14 15 13 11 13 14 13 13 14 15 17 18 19 18 18 16 13 13 12 12 10 10 9 8 7 6 5
19 21 23 20 17 18 22 24 23 24 26 26 24 24 25 27 25 24 25 25 24 24 24 25 26 25 25 25 24 24 24 22 20 19 19 18 18 18 18 18 18 18 18 19 19 18 17 17 17 17 18 17 17 16 15 14 14 15 15 16 15 13 12 12 13 14 15 15 15 18 20 18 18 16 15 15 14 12 11 9 7 5 5 4 3
Wind_Direction
161 157 157 155 157 157 156 154 152 150 146 142 137 135 135 135 136 136 136 139 147 150 147 144 143 142 141 140 139 137 136 134 132 129 123 118 110 102 95 91 91 89 89 91 92 96 99 104 102 97 98 100 101 99 96 95 94 97 98 99 100 100 100 100 99 99 101 103 102 99 97 95 95 95 94 92 91 92 92 90 87 85 82 79 77
162 157 158 156 158 158 157 155 153 152 147 144 139 138 136 137 136 136 137 138 145 150 148 145 144 143 142 141 140 138 137 136 133 131 126 120 112 103 97 94 93 93 93 92 93 96 100 105 105 102 101 101 102 101 99 97 94 93 92 93 96 98 98 99 100 100 101 101 99 97 97 96 96 95 94 93 92 91 90 89 88 85 82 82 81
161 158 159 157 160 158 157 156 154 153 149 146 142 140 138 138 137 136 136 137 142 147 149 147 146 145 144 142 140 139 138 138 135 133 129 122 114 106 102 99 96 96 96 96 97 97 101 106 109 108 105 105 105 102 99 97 96 97 97 96 97 97 97 98 97 96 97 98 99 98 98 96 94 91 90 90 89 89 88 88 88 87 87 90 89
163 159 159 158 160 159 158 157 156 155 151 149 145 142 140 139 138 137 136 136 139 145 149 148 148 147 146 144 141 141 140 141 137 135 132 125 117 111 106 102 100 100 98 97 99 101 104 109 114 112 109 109 107 103 97 96 96 96 96 93 91 90 90 92 92 91 93 94 96 96 95 92 89 86 85 87 88 90 89 88 89 90 94 96 93
163 159 160 160 160 160 160 158 157 157 154 151 148 145 142 141 140 139 137 137 138 142 148 150 150 149 149 146 143 142 143 143 140 138 136 128 119 114 109 103 101 102 100 99 101 103 107 112 117 115 113 112 108 103 97 95 94 93 92 89 85 83 83 86 89 90 91 91 91 92 92 89 87 84 83 86 87 88 87 85 87 93 96 94 92
164 161 161 161 160 161 161 159 159 159 157 153 150 148 145 144 142 140 138 138 140 142 146 150 151 151 151 149 146 144 145 146 143 144 140 130 123 118 114 108 102 101 101 102 104 105 108 113 118 116 114 112 109 105 100 97 95 93 90 87 86 85 84 84 87 88 90 91 89 87 86 85 86 86 83 83 86 85 81 78 79 86 84 79 82
165 163 162 161 160 160 161 161 161 161 159 156 153 151 150 148 145 142 140 139 142 143 144 147 151 152 152 151 148 146 147 148 148 149 143 134 129 125 120 115 108 104 103 104 108 110 111 114 116 115 114 113 110 107 102 98 94 90 86 82 82 85 87 86 86 90 93 92 96 91 79 76 78 83 82 78 77 73 71 71 71 71 71 70 75
165 165 162 160 160 160 162 163 163 163 161 158 156 155 154 153 149 146 144 144 144 143 144 146 148 149 150 151 148 145 148 152 153 152 147 143 139 134 127 120 113 110 108 108 111 115 117 118 118 117 117 115 112 107 101 96 92 87 82 79 80 87 92 92 93 93 88 83 88 91 81 69 61 75 84 73 65 63 64 65 68 72 76 77 88
165 165 161 160 159 160 162 164 165 164 163 160 159 159 158 156 153 151 151 150 146 144 144 145 146 146 147 149 147 146 148 151 157 157 152 151 148 141 133 124 118 115 112 112 114 117 121 122 122 121 120 117 112 106 100 96 91 86 81 81 89 93 93 94 99 93 81 74 75 78 72 50 32 82 91 77 69 71 73 74 78 81 82 88 91
167 165 161 159 158 160 162 165 166 165 165 164 164 163 162 160 159 158 158 155 150 147 146 146 146 146 146 148 148 148 148 148 153 159 158 157 155 150 140 131 126 120 116 115 117 118 122 126 126 125 123 118 112 106 101 96 90 86 85 93 96 91 88 85 89 85 74 67 65 58 46 37 53 86 86 81 81 83 84 87 90 91 89 89 88
168 163 159 158 157 160 162 166 167 167 168 167 168 166 165 164 164 164 163 160 154 152 150 148 148 148 149 149 150 150 150 147 148 154 160 162 159 156 149 141 136 129 123 119 118 120 123 128 131 130 126 120 113 108 102 96 90 89 95 107 101 92 85 77 78 75 63 50 37 25 26 39 88 85 84 87 86 87 91 91 91 93 91 91 90
167 161 157 157 158 159 162 166 168 169 170 171 170 169 169 168 168 167 166 165 160 158 156 153 152 153 155 153 151 151 149 147 148 149 157 163 162 160 155 150 143 137 130 122 121 123 126 130 135 135 130 122 115 109 103 97 95 97 107 114 107 100 85 71 70 62 44 18 6 8 15 40 97 92 93 93 88 89 93 93 92 90 86 90 93
163 158 157 157 157 159 162 166 169 171 172 172 172 172 173 171 170 170 169 169 167 164 161 158 158 159 160 157 153 151 149 145 147 149 154 161 162 162 159 154 148 141 135 126 124 126 130 133 137 138 132 125 118 111 105 103 104 111 121 123 117 111 96 80 69 47 15 352 345 355 8 70 105 102 101 98 92 90 89 91 92 90 86 88 92
159 157 157 157 157 159 162 166 170 171 172 172 173 174 174 173 172 172 173 172 171 169 167 165 164 165 163 160 157 153 152 147 146 149 152 158 161 163 161 157 152 146 139 132 128 127 132 136 137 137 132 126 120 116 112 111 117 128 139 141 130 110 92 81 60 29 6 349 334 349 38 103 106 102 102 98 92 88 87 88 88 90 92 93 94
155 155 157 157 156 158 162 164 167 168 169 170 172 174 174 173 173 173 175 176 175 174 174 171 168 169 167 164 162 158 157 155 151 151 154 156 159 163 162 158 154 148 142 136 132 129 131 136 138 135 131 127 123 120 116 117 129 142 151 146 123 93 74 64 52 42 35 32 45 72 104 108 101 99 101 98 93 89 88 87 88 90 93 94 95
153 156 158 157 155 157 159 159 162 165 166 167 170 171 172 173 174 176 177 181 181 178 176 173 172 173 173 170 168 167 164 161 157 155 155 156 159 162 160 159 157 151 147 141 134 131 129 133 138 136 132 129 124 120 116 122 142 150 149 132 102 83 67 54 50 53 53 55 73 96 107 105 101 100 98 95 93 92 91 90 90 91 92 93 95
154 159 159 157 154 155 156 154 158 161 162 163 166 168 171 174 175 178 179 183 184 181 178 174 177 177 176 173 170 173 166 160 162 159 157 157 161 160 154 158 159 153 151 143 135 131 127 131 138 138 133 130 126 120 118 128 142 139 126 106 86 72 59 48 46 52 56 59 71 86 97 102 105 102 98 94 94 94 94 94 94 95 96 97 96
159 162 160 156 154 154 155 154 156 158 158 159 162 166 169 171 172 177 181 184 184 181 179 176 178 177 176 172 170 169 162 162 164 164 162 160 162 154 148 156 160 156 153 145 136 131 128 131 138 140 136 133 128 121 118 121 120 112 102 92 76 61 51 42 41 48 55 60 67 76 89 99 103 102 97 96 96 98 98 98 98 98 100 100 100
160 164 162 160 158 158 157 154 155 156 156 156 159 163 162 163 168 176 181 183 183 181 181 178 176 174 171 168 165 161 157 162 166 166 165 163 162 150 144 153 160 159 154 146 137 131 127 134 140 141 139 135 129 121 112 104 99 93 84 77 66 54 45 36 36 44 51 59 64 68 79 90 97 100 97 98 101 103 104 102 101 101 101 101 102
161 166 166 166 164 162 160 158 160 161 161 160 159 157 155 160 168 177 180 181 182 181 181 177 175 171 168 166 162 157 156 160 165 168 167 166 162 148 143 153 160 160 156 147 139 131 127 135 144 145 141 137 133 125 111 102 102 98 87 74 62 51 41 35 33 36 47 58 64 65 71 78 85 94 99 104 107 108 106 103 102 102 102 102 101
165 169 171 172 170 169 169 172 175 175 173 167 163 157 156 163 171 176 179 182 181 181 179 174 174 171 168 168 163 160 159 158 163 168 168 169 165 152 148 155 160 161 159 151 142 134 128 133 144 150 144 140 139 132 123 123 142 153 114 86 68 53 42 40 34 31 43 55 61 66 70 73 75 90 100 104 107 107 106 106 104 102 101 99 99
169 172 176 179 179 179 182 188 191 188 182 175 170 163 163 167 172 177 180 183 182 180 177 174 176 172 170 170 166 164 162 160 161 165 167 171 171 162 157 160 161 162 163 156 146 141 135 132 139 150 150 144 141 137 135 139 156 175 115 86 72 60 46 41 34 30 38 48 52 58 64 71 75 83 93 98 101 103 103 105 105 102 100 98 98
171 173 178 184 189 190 190 192 191 187 181 176 173 169 168 170 174 178 180 183 184 181 177 177 177 173 171 171 168 166 166 164 161 161 164 171 176 170 167 168 162 164 170 162 151 146 143 136 134 142 147 146 141 139 143 145 156 176 119 89 75 63 46 36 29 27 32 38 43 51 57 60 66 75 81 88 93 97 97 97 99 100 100 98 97
170 170 172 182 193 199 198 193 187 182 179 176 174 171 171 174 178 180 182 185 184 181 179 180 178 175 175 173 170 168 170 170 164 164 165 169 174 173 174 174 165 166 174 169 157 151 149 144 137 137 143 145 141 142 149 152 163 183 177 150 80 55 38 26 18 19 25 29 30 35 43 46 56 68 68 72 81 87 91 92 94 94 99 100 99
169 170 170 180 191 200 207 202 193 185 182 181 178 176 176 179 182 183 185 187 185 183 181 182 179 179 179 176 173 172 173 173 171 172 171 171 173 175 178 177 170 168 175 173 162 156 154 151 146 144 147 150 146 145 149 155 172 190 204 229 305 36 34 15 4 8 13 17 17 13 11 21 43 57 58 62 71 80 86 89 92 93 96 98 100
173 174 174 183 189 199 208 207 197 190 186 186 185 184 184 184 186 186 188 188 186 184 183 183 182 183 183 181 178 176 177 176 175 174 173 173 173 173 176 179 177 173 176 175 168 162 159 157 155 153 154 156 151 148 149 154 174 193 209 239 278 317 345 341 349 359 2 6 7 360 351 349 4 38 51 60 68 74 79 82 89 92 91 93 95
180 180 182 187 191 200 207 205 197 194 191 190 191 191 190 190 190 190 190 190 187 186 186 184 185 186 187 186 183 181 180 177 173 169 169 169 169 170 174 182 184 179 178 176 172 167 162 162 163 162 161 160 159 158 154 159 182 204 219 234 263 275 281 297 321 346 351 355 358 359 357 347 339 3 46 70 78 76 75 81 87 90 91 91 91
188 188 189 189 193 201 206 206 201 198 197 196 197 196 195 195 195 194 192 191 190 189 188 186 187 188 190 189 186 185 181 175 171 166 164 163 165 169 175 186 188 182 179 176 175 171 166 167 170 171 171 169 172 170 157 162 189 208 226 232 245 257 268 281 291 316 323 325 341 359 15 19 359 356 34 114 109 102 92 89 89 90 93 93 92
193 196 195 191 196 204 208 210 207 202 203 202 201 199 197 197 199 197 193 193 193 193 192 190 189 191 192 190 188 189 182 175 171 166 163 161 164 166 168 173 173 174 176 176 175 174 171 174 177 179 181 182 181 171 157 170 196 209 226 238 241 251 268 276 280 297 312 308 333 16 36 47 43 35 60 129 145 136 121 111 102 100 99 96 93
194 202 198 193 197 205 208 211 211 207 206 206 203 201 199 200 202 199 194 194 196 198 197 194 194 196 195 192 190 190 185 178 172 167 163 161 164 161 154 149 150 154 159 163 169 172 173 176 179 181 185 185 180 171 169 189 205 211 224 240 244 253 266 267 266 279 312 342 356 35 57 64 60 58 63 118 153 151 139 129 120 119 112 104 99
196 201 195 195 199 204 207 210 211 211 209 207 205 203 201 203 206 201 196 196 198 201 202 199 199 201 200 197 194 192 189 182 175 169 163 163 165 159 152 147 146 148 149 152 159 164 164 164 167 171 176 177 176 175 182 202 216 218 224 236 242 249 257 254 250 249 254 292 326 6 39 59 60 60 67 127 151 154 148 140 134 127 118 111 107
194 197 195 198 202 204 206 208 210 211 210 207 207 206 204 208 208 203 199 198 200 202 203 202 202 204 206 203 198 194 190 186 181 173 167 168 168 160 155 151 148 150 154 156 156 155 157 161 165 167 169 171 177 180 188 212 223 223 225 235 242 245 245 244 244 239 236 252 266 310 2 42 54 58 83 150 156 153 145 138 132 125 120 115 110
192 193 197 201 203 206 206 208 209 210 210 208 208 209 210 213 210 203 201 201 201 203 204 202 203 204 206 206 202 197 192 189 184 176 173 174 171 163 156 151 148 151 157 160 157 156 162 170 175 177 176 174 181 191 201 214 218 217 225 241 246 242 240 240 238 231 226 237 246 245 313 23 35 52 104 160 157 146 137 132 129 125 121 116 111
195 190 195 201 205 207 208 209 208 208 210 209 209 211 213 215 210 204 204 204 203 205 206 205 205 205 205 206 205 202 197 192 186 179 177 175 171 163 155 148 145 151 158 163 164 170 178 182 184 188 188 185 193 207 216 219 218 219 229 245 244 238 235 234 233 231 233 238 236 228 230 39 46 60 123 154 151 140 133 129 126 123 119 115 111
199 193 194 200 205 208 211 212 209 208 209 209 209 212 215 214 208 207 209 208 205 207 209 208 208 207 207 207 208 208 201 193 186 181 178 175 171 163 159 154 150 156 165 171 173 178 186 188 189 192 194 197 202 212 220 225 228 228 235 240 233 229 229 230 231 232 238 240 239 244 229 149 103 77 123 144 146 140 132 128 125 120 116 111 107
198 196 196 200 207 210 213 215 211 208 208 208 210 214 215 212 208 209 213 211 208 208 208 209 210 211 212 211 211 209 201 193 185 181 180 176 174 170 169 165 159 166 173 178 179 181 186 187 190 196 201 203 203 210 219 227 233 227 227 225 215 219 229 232 229 231 236 236 237 232 208 169 134 117 132 141 147 145 139 135 133 129 124 122 119
194 196 200 202 206 209 213 215 211 208 208 208 212 216 215 212 209 211 216 215 213 213 210 211 214 215 215 214 212 207 200 191 183 182 183 181 180 179 177 169 165 172 177 181 183 185 187 188 192 197 207 208 203 212 218 221 226 217 207 202 200 208 219 225 225 229 234 233 233 220 205 189 157 143 143 149 157 153 148 146 147 146 150 160 169
190 195 203 206 206 208 211 212 210 207 207 208 212 214 214 213 211 213 218 216 215 216 214 215 217 217 216 215 211 206 199 190 185 187 187 185 185 183 179 172 171 176 179 181 185 189 188 188 193 196 207 212 207 216 220 215 210 200 189 180 185 199 203 212 220 224 225 228 231 215 205 192 166 153 147 152 154 152 153 156 157 158 161 171 180
189 192 199 204 205 206 208 208 206 206 208 209 211 210 210 214 213 215 219 215 214 213 215 217 218 219 217 214 210 205 199 191 190 193 190 188 188 185 182 179 177 179 184 186 188 191 187 184 192 198 206 207 204 214 216 210 197 190 188 178 176 188 189 194 207 215 220 227 225 211 207 194 172 159 154 154 153 153 160 164 162 160 168 179 183
197 199 198 198 201 203 204 204 204 208 209 208 210 209 209 214 215 216 217 215 214 210 212 217 218 220 216 211 207 202 199 195 195 197 192 191 191 187 185 186 185 182 186 190 190 193 189 185 193 202 207 199 192 201 206 205 197 184 177 171 170 172 172 181 196 209 220 228 224 212 204 188 173 165 164 166 164 166 165 164 166 166 173 184 190
203 206 201 194 197 202 202 202 205 210 208 204 209 211 210 215 216 214 212 212 212 209 209 213 216 216 209 204 201 198 199 198 198 196 192 192 193 189 187 190 188 180 184 192 190 191 190 190 195 201 208 203 191 189 195 203 201 185 172 164 165 166 166 175 189 204 216 227 222 210 196 187 182 170 169 175 173 173 166 164 177 176 176 187 196
204 205 204 194 194 200 202 204 207 209 208 204 207 209 210 214 216 216 210 206 210 210 209 210 211 208 201 198 198 198 200 199 199 198 193 192 192 191 190 192 188 179 184 192 191 190 192 196 199 198 201 205 201 193 194 204 202 197 189 176 168 167 167 178 187 201 210 212 207 201 192 199 199 177 170 179 176 174 170 174 188 183 184 191 190
211 207 205 199 196 198 201 207 209 209 209 206 206 208 208 210 215 217 212 207 209 211 213 214 209 202 197 197 199 202 202 203 205 203 198 195 192 192 191 192 191 184 187 192 192 194 197 201 203 199 194 196 205 199 195 204 202 196 189 182 181 175 163 171 191 199 202 203 202 199 195 203 204 183 172 180 179 179 178 182 187 182 188 189 182
216 211 204 199 197 195 199 206 209 211 210 207 207 209 208 207 211 213 212 210 208 209 214 215 211 202 197 198 201 204 205 207 207 205 203 198 194 193 190 191 192 189 190 194 196 199 204 206 204 201 198 198 200 193 192 201 202 197 188 178 183 185 173 176 191 193 189 197 204 201 195 195 198 185 177 183 185 187 190 192 186 177 181 180 171
215 212 202 197 195 193 197 204 209 213 213 208 205 209 208 203 201 203 208 211 209 209 211 211 210 204 200 201 202 204 206 207 206 206 205 200 197 195 191 191 191 189 193 197 200 204 208 209 207 203 205 210 207 193 192 195 195 209 213 195 178 192 198 190 189 189 189 194 197 196 189 181 184 187 185 190 193 192 196 197 192 184 173 167 160
215 210 200 195 194 192 195 203 210 214 215 209 204 207 207 200 198 198 202 208 209 210 210 208 206 203 200 201 202 204 206 206 206 207 205 199 198 197 195 194 190 189 195 199 201 204 206 206 207 206 205 212 214 203 195 190 187 201 218 223 213 218 212 192 180 177 185 194 193 189 186 178 179 189 191 193 196 196 198 198 193 187 169 160 158
212 203 195 190 190 191 196 204 210 214 215 211 206 207 205 200 198 198 200 207 208 209 210 207 205 204 201 201 201 203 207 206 205 205 202 199 198 200 201 197 192 193 196 198 201 202 203 204 208 209 205 205 209 207 199 193 192 194 204 218 230 246 224 201 190 180 177 184 192 191 189 185 185 190 191 190 194 198 200 198 189 181 174 167 161
209 201 193 183 181 186 196 204 207 209 211 209 207 204 202 199 197 199 203 207 209 211 212 209 206 205 202 202 203 203 205 205 203 201 198 200 201 202 203 197 195 198 195 198 203 201 200 204 207 206 205 205 204 203 200 202 201 197 199 206 219 233 215 210 216 202 182 176 183 190 189 189 189 189 189 185 189 198 198 193 182 175 178 176 165
206 202 194 181 177 180 190 199 203 204 203 203 201 197 198 200 200 202 203 204 210 215 215 211 207 205 203 203 203 203 203 203 202 200 200 203 203 202 201 195 196 198 194 197 201 200 201 203 204 201 201 203 204 202 202 208 208 203 204 203 204 204 190 196 213 214 197 181 182 189 187 188 189 188 190 185 182 186 186 179 173 174 182 184 180
206 205 198 184 181 185 189 194 198 199 196 195 195 191 193 200 203 205 202 202 209 214 214 209 204 204 205 204 202 201 202 201 201 200 201 206 203 200 196 191 195 196 194 197 197 198 200 200 201 201 200 200 200 202 204 208 209 208 212 209 206 198 186 192 201 203 206 196 190 191 188 187 187 187 191 188 178 175 177 176 173 174 179 183 191
201 204 200 189 189 197 198 196 196 196 193 191 193 191 190 195 201 205 204 203 207 211 212 206 201 202 202 203 203 202 201 199 198 198 198 202 200 195 191 189 195 196 192 195 195 196 196 195 197 200 202 203 201 200 202 205 205 206 212 215 219 218 210 210 205 197 201 203 198 193 189 187 187 187 187 181 175 178 184 185 181 178 173 169 178
Height
1509 1510 1512 1513 1515 1517 1518 1519 1519 1520 1521 1521 1521 1522 1522 1523 1523 1524 1525 1526 1527 1528 1529 1530 1531 1532 1533 1534 1535 1535 1536 1536 1537 1537 1538 1538 1538 1538 1538 1538 1537 1537 1537 1537 1537 1537 1538 1539 1539 1540 1540 1540 1541 1541 1541 1541 1541 1541 1541 1542 1542 1542 1542 1542 1542 1542 1542 1542 1543 1543 1542 1543 1543 1543 1542 1542 1542 1542 1541 1542 1541 1541 1541 1541 1541
1508 1511 1512 1514 1515 1517 1518 1518 1520 1520 1521 1521 1522 1522 1522 1523 1524 1525 1526 1526 1527 1528 1529 1530 1531 1532 1533 1534 1535 1536 1537 1537 1538 1538 1539 1539 1539 1539 1539 1539 1538 1538 1538 1538 1538 1538 1539 1540 1540 1541 1542 1542 1542 1543 1543 1543 1543 1543 1542 1543 1543 1544 1544 1543 1543 1543 1543 1543 1544 1544 1544 1544 1544 1544 1543 1543 1543 1543 1543 1543 1543 1542 1542 1542 1542
1509 1511 1512 1514 1515 1517 1518 1518 1519 1520 1521 1522 1522 1523 1523 1524 1525 1526 1526 1527 1528 1529 1530 1531 1532 1533 1534 1535 1536 1537 1537 1538 1539 1539 1539 1540 1540 1540 1540 1540 1539 1539 1539 1539 1539 1539 1540 1541 1541 1542 1543 1543 1544 1544 1544 1544 1544 1544 1544 1545 1545 1545 1545 1544 1544 1544 1544 1544 1544 1545 1545 1545 1545 1544 1544 1544 1544 1544 1544 1544 1544 1543 1543 1543 1543
1509 1511 1512 1514 1515 1517 1518 1518 1520 1520 1521 1522 1523 1523 1524 1525 1526 1527 1527 1528 1529 1530 1531 1532 1533 1534 1535 1535 1536 1537 1538 1539 1540 1540 1540 1541 1541 1541 1541 1541 1540 1540 1540 1540 1540 1541 1541 1542 1542 1543 1544 1545 1545 1545 1546 1546 1546 1546 1546 1546 1546 1546 1546 1545 1546 1545 1546 1546 1546 1546 1546 1545 1545 1545 1545 1545 1545 1545 1545 1545 1545 1545 1544 1544 1544
1509 1511 1512 1514 1515 1517 1518 1519 1520 1521 1522 1523 1524 1525 1526 1526 1527 1528 1528 1529 1530 1531 1531 1532 1533 1534 1535 1536 1537 1537 1539 1539 1540 1541 1541 1542 1542 1542 1542 1541 1541 1541 1541 1541 1542 1542 1542 1542 1543 1544 1545 1546 1546 1546 1547 1547 1547 1547 1547 1547 1547 1547 1547 1547 1547 1547 1547 1547 1547 1547 1547 1547 1546 1547 1547 1547 1546 1546 1546 1546 1546 1546 1545 1545 1545
1509 1510 1512 1514 1515 1517 1518 1519 1520 1521 1522 1523 1525 1525 1527 1527 1528 1528 1529 1530 1531 1532 1532 1533 1534 1535 1535 1536 1537 1538 1539 1540 1541 1541 1542 1543 1543 1543 1543 1543 1542 1542 1542 1543 1543 1543 1544 1544 1545 1545 1546 1547 1547 1547 1547 1547 1548 1548 1548 1548 1548 1548 1548 1548 1548 1548 1548 1548 1548 1548 1548 1548 1548 1548 1548 1548 1547 1547 1547 1547 1546 1546 1546 1546 1545
1509 1510 1512 1514 1515 1517 1518 1520 1521 1522 1523 1524 1525 1526 1527 1528 1529 1529 1530 1531 1532 1532 1533 1533 1534 1535 1536 1537 1538 1539 1540 1541 1541 1542 1543 1543 1544 1544 1544 1544 1543 1543 1544 1544 1544 1545 1545 1545 1546 1547 1547 1548 1548 1548 1548 1549 1549 1549 1549 1549 1549 1549 1549 1549 1549 1549 1549 1549 1549 1550 1550 1549 1549 1549 1549 1549 1548 1548 1547 1547 1547 1546 1546 1546 1546
1509 1511 1512 1514 1516 1517 1519 1520 1521 1523 1524 1525 1526 1527 1528 1528 1529 1530 1531 1531 1532 1533 1534 1534 1535 1536 1537 1538 1539 1540 1540 1541 1542 1543 1544 1544 1544 1545 1545 1545 1545 1545 1545 1545 1545 1546 1546 1547 1547 1548 1549 1549 1549 1549 1550 1550 1550 1550 1550 1550 1550 1550 1550 1550 1550 1550 1550 1550 1550 1550 1551 1551 1550 1550 1549 1549 1548 1548 1548 1547 1547 1547 1546 1546 1546
1509 1510 1512 1514 1516 1517 1519 1521 1522 1523 1524 1525 1526 1527 1528 1529 1530 1530 1531 1532 1533 1534 1535 1535 1536 1537 1537 1538 1539 1540 1541 1542 1543 1543 1544 1545 1545 1546 1546 1546 1546 1546 1546 1546 1546 1547 1547 1548 1549 1549 1550 1550 1550 1551 1551 1551 1551 1551 1551 1551 1550 1551 1551 1551 1551 1551 1551 1551 1551 1551 1552 1552 1551 1550 1550 1549 1549 1549 1548 1548 1548 1547 1547 1547 1547
1509 1510 1512 1514 1516 1518 1520 1521 1522 1524 1525 1525 1526 1527 1528 1529 1530 1530 1531 1533 1534 1535 1535 1536 1536 1537 1538 1539 1539 1540 1541 1542 1543 1544 1545 1545 1546 1546 1547 1547 1547 1547 1547 1547 1547 1548 1548 1549 1550 1550 1551 1551 1552 1552 1552 1553 1553 1553 1552 1551 1551 1551 1552 1552 1552 1552 1552 1552 1552 1552 1552 1552 1552 1551 1550 1550 1550 1549 1549 1549 1548 1548 1548 1548 1548
1508 1510 1513 1515 1517 1519 1520 1522 1523 1524 1525 1525 1526 1527 1528 1529 1530 1531 1532 1533 1534 1535 1536 1536 1537 1538 1538 1539 1540 1540 1541 1542 1543 1544 1545 1546 1547 1547 1548 1548 1548 1548 1548 1548 1549 1549 1550 1550 1551 1551 1552 1553 1553 1554 1554 1554 1554 1554 1553 1552 1552 1553 1553 1553 1553 1553 1553 1553 1553 1553 1553 1553 1552 1552 1551 1551 1551 1550 1550 1549 1549 1549 1549 1549 1550
1509 1511 1513 1516 1518 1519 1521 1522 1523 1524 1525 1525 1526 1527 1528 1529 1530 1531 1533 1534 1535 1535 1536 1537 1537 1538 1538 1539 1540 1541 1542 1543 1544 1545 1546 1546 1547 1548 1548 1549 1549 1549 1550 1550 1550 1550 1551 1551 1552 1553 1553 1554 1555 1555 1556 1555 1555 1555 1554 1553 1553 1554 1554 1554 1554 1554 1554 1554 1554 1554 1554 1553 1553 1553 1552 1552 1552 1551 1551 1551 1550 1550 1550 1550 1551
1509 1512 1514 1516 1518 1520 1521 1522 1523 1523 1524 1525 1526 1527 1528 1529 1530 1532 1533 1534 1535 1536 1536 1537 1538 1538 1539 1540 1540 1541 1542 1543 1544 1545 1546 1547 1548 1548 1549 1549 1550 1550 1551 1551 1551 1551 1552 1552 1553 1554 1555 1556 1557 1557 1557 1557 1556 1556 1554 1554 1554 1555 1555 1555 1555 1555 1555 1555 1555 1554 1554 1554 1554 1553 1553 1553 1553 1552 1552 1552 1551 1552 1552 1552 1552
1510 1513 1515 1517 1518 1520 1520 1521 1522 1523 1524 1526 1527 1528 1529 1530 1531 1532 1533 1534 1535 1536 1537 1537 1538 1539 1539 1540 1541 1542 1543 1544 1545 1545 1546 1547 1548 1549 1549 1550 1551 1551 1551 1552 1552 1552 1553 1553 1554 1556 1557 1558 1558 1558 1558 1558 1557 1556 1555 1555 1556 1556 1557 1557 1557 1557 1556 1556 1555 1555 1555 1555 1555 1554 1554 1554 1554 1553 1553 1553 1553 1553 1553 1553 1553
1512 1514 1516 1517 1518 1519 1520 1521 1522 1524 1525 1527 1528 1529 1529 1530 1531 1532 1533 1534 1535 1536 1536 1537 1538 1539 1540 1541 1542 1542 1544 1544 1545 1546 1547 1548 1548 1549 1550 1550 1551 1552 1552 1553 1553 1553 1554 1555 1556 1557 1558 1559 1559 1560 1559 1559 1557 1556 1556 1556 1557 1558 1558 1558 1558 1558 1557 1556 1556 1556 1556 1556 1555 1555 1555 1555 1555 1555 1554 1554 1554 1554 1554 1554 1554
1515 1516 1517 1518 1519 1520 1521 1522 1524 1525 1526 1528 1528 1529 1530 1530 1531 1532 1533 1534 1534 1535 1536 1537 1538 1539 1540 1541 1542 1543 1544 1545 1545 1546 1547 1548 1549 1549 1550 1551 1552 1552 1553 1554 1554 1555 1555 1556 1557 1558 1559 1560 1561 1561 1560 1559 1557 1557 1557 1558 1559 1559 1560 1560 1559 1559 1558 1557 1557 1557 1557 1557 1556 1556 1556 1556 1556 1556 1556 1556 1555 1555 1555 1555 1555
1518 1518 1519 1519 1520 1521 1522 1524 1525 1526 1527 1528 1528 1529 1529 1530 1530 1531 1532 1533 1534 1534 1535 1536 1537 1538 1539 1540 1542 1543 1544 1545 1546 1546 1547 1548 1549 1550 1551 1551 1552 1553 1554 1554 1555 1556 1556 1557 1558 1559 1560 1561 1562 1562 1561 1559 1558 1559 1559 1560 1560 1561 1561 1561 1560 1560 1559 1559 1558 1558 1558 1558 1557 1557 1557 1557 1557 1557 1557 1557 1557 1557 1557 1556 1556
1519 1519 1520 1520 1520 1521 1523 1524 1526 1526 1527 1527 1528 1528 1528 1529 1530 1531 1532 1532 1533 1534 1535 1535 1536 1538 1539 1540 1541 1543 1544 1545 1546 1547 1547 1548 1549 1551 1551 1552 1553 1553 1554 1555 1556 1557 1557 1558 1559 1560 1561 1562 1563 1563 1562 1561 1560 1560 1560 1560 1561 1561 1561 1561 1561 1560 1560 1560 1560 1560 1560 1559 1559 1558 1559 1558 1558 1558 1558 1558 1558 1558 1558 1558 1558
1520 1520 1520 1520 1520 1521 1522 1523 1525 1526 1526 1526 1527 1527 1528 1529 1529 1530 1531 1531 1532 1533 1534 1535 1536 1538 1539 1540 1541 1542 1544 1545 1546 1546 1547 1548 1550 1551 1552 1552 1553 1554 1555 1556 1557 1558 1558 1559 1560 1561 1562 1563 1564 1564 1563 1562 1561 1561 1561 1561 1562 1562 1561 1561 1561 1561 1561 1561 1561 1561 1561 1560 1560 1560 1560 1560 1559 1559 1559 1559 1559 1559 1559 1559 1559
1519 1520 1520 1520 1520 1521 1522 1523 1523 1523 1524 1524 1525 1526 1527 1527 1528 1529 1530 1531 1532 1533 1534 1535 1536 1538 1539 1540 1541 1542 1544 1545 1545 1546 1547 1549 1550 1552 1552 1553 1553 1554 1555 1557 1558 1559 1559 1560 1561 1562 1563 1564 1564 1565 1564 1563 1562 1561 1562 1562 1562 1562 1562 1562 1562 1562 1562 1562 1562 1562 1562 1561 1561 1561 1560 1560 1560 1560 1560 1560 1560 1560 1560 1560 1560
1517 1519 1519 1519 1520 1520 1520 1520 1520 1520 1520 1521 1523 1524 1525 1526 1527 1528 1529 1530 1531 1532 1533 1535 1536 1537 1538 1539 1541 1542 1543 1544 1545 1546 1547 1549 1550 1552 1553 1553 1554 1555 1556 1557 1558 1559 1560 1561 1562 1562 1563 1564 1565 1566 1565 1564 1563 1562 1563 1563 1563 1563 1563 1563 1563 1563 1563 1563 1562 1562 1562 1562 1562 1562 1561 1561 1561 1561 1561 1561 1561 1561 1561 1561 1561
1516 1518 1519 1519 1518 1518 1516 1515 1515 1515 1516 1518 1520 1522 1523 1524 1525 1526 1527 1529 1530 1531 1532 1534 1535 1536 1538 1539 1541 1542 1543 1545 1546 1546 1547 1549 1550 1552 1553 1553 1554 1555 1556 1558 1559 1560 1561 1562 1562 1563 1564 1565 1565 1566 1565 1564 1564 1563 1564 1564 1564 1564 1564 1564 1564 1564 1564 1563 1563 1563 1563 1563 1563 1562 1562 1562 1563 1563 1562 1562 1562 1562 1562 1562 1562
1514 1516 1517 1517 1517 1516 1515 1515 1515 1516 1517 1518 1519 1521 1522 1523 1525 1525 1526 1527 1529 1530 1532 1533 1534 1536 1537 1539 1540 1542 1544 1545 1546 1547 1548 1548 1550 1552 1553 1554 1554 1555 1557 1558 1559 1560 1561 1562 1563 1563 1564 1565 1566 1566 1566 1565 1564 1564 1564 1564 1564 1564 1564 1565 1565 1565 1564 1564 1564 1564 1564 1563 1563 1563 1563 1563 1563 1564 1564 1563 1563 1563 1563 1563 1563
1513 1513 1514 1515 1515 1515 1515 1515 1517 1518 1519 1519 1520 1522 1523 1524 1525 1526 1526 1527 1528 1530 1531 1532 1534 1536 1537 1539 1540 1542 1543 1545 1546 1547 1548 1548 1549 1551 1552 1554 1555 1555 1557 1558 1559 1560 1561 1562 1563 1564 1565 1565 1566 1567 1566 1566 1565 1564 1564 1564 1564 1564 1565 1565 1566 1566 1565 1565 1565 1565 1564 1564 1564 1564 1564 1564 1564 1564 1564 1564 1564 1564 1564 1564 1564
1511 1511 1511 1511 1511 1512 1512 1514 1516 1518 1519 1520 1521 1523 1523 1524 1525 1526 1526 1527 1529 1530 1531 1532 1534 1535 1537 1538 1540 1541 1543 1544 1546 1547 1547 1548 1549 1551 1552 1553 1554 1555 1557 1558 1559 1561 1562 1563 1563 1564 1565 1566 1566 1567 1567 1566 1565 1564 1565 1564 1564 1565 1565 1566 1566 1566 1566 1566 1566 1565 1565 1565 1565 1565 1565 1565 1565 1565 1565 1565 1565 1565 1564 1564 1564
1509 1508 1508 1508 1509 1509 1510 1511 1515 1518 1519 1520 1522 1523 1524 1524 1525 1525 1526 1528 1529 1530 1531 1532 1533 1535 1537 1538 1540 1541 1542 1544 1546 1547 1547 1548 1549 1551 1552 1553 1554 1555 1556 1558 1559 1561 1562 1563 1563 1564 1565 1565 1566 1567 1567 1566 1565 1564 1565 1565 1565 1565 1566 1566 1566 1567 1567 1567 1567 1566 1566 1565 1565 1565 1565 1565 1565 1565 1566 1566 1566 1565 1565 1565 1565
1507 1507 1507 1508 1509 1510 1510 1512 1514 1517 1518 1520 1522 1523 1524 1525 1525 1526 1527 1528 1529 1530 1531 1532 1534 1535 1537 1538 1540 1541 1542 1544 1545 1546 1547 1548 1549 1550 1551 1552 1553 1555 1556 1558 1559 1561 1562 1563 1563 1564 1564 1565 1566 1567 1567 1567 1566 1565 1565 1566 1566 1566 1566 1566 1567 1567 1568 1568 1567 1567 1566 1566 1566 1566 1566 1566 1566 1566 1566 1566 1566 1566 1566 1566 1566
1507 1507 1508 1509 1511 1511 1511 1513 1515 1517 1518 1520 1521 1523 1524 1525 1526 1527 1528 1529 1531 1532 1532 1533 1534 1536 1537 1539 1540 1541 1543 1544 1545 1546 1547 1548 1549 1550 1551 1552 1553 1554 1556 1557 1559 1561 1562 1563 1563 1564 1564 1565 1566 1566 1567 1567 1566 1566 1566 1567 1567 1567 1567 1567 1567 1567 1568 1568 1568 1568 1567 1567 1566 1566 1566 1566 1566 1566 1566 1567 1567 1567 1567 1567 1567
1508 1509 1509 1510 1511 1511 1512 1512 1514 1516 1518 1519 1521 1523 1524 1526 1527 1527 1529 1530 1532 1533 1533 1534 1535 1537 1538 1539 1540 1542 1543 1544 1545 1546 1547 1548 1548 1549 1550 1551 1552 1553 1555 1557 1559 1561 1562 1562 1563 1563 1564 1564 1565 1566 1566 1566 1566 1566 1566 1567 1567 1567 1567 1567 1568 1568 1568 1568 1568 1568 1568 1567 1566 1566 1566 1566 1567 1567 1567 1567 1567 1567 1567 1567 1567
1509 1509 1509 1509 1510 1511 1512 1512 1514 1516 1517 1519 1520 1522 1525 1526 1527 1528 1529 1531 1532 1533 1534 1535 1537 1537 1538 1539 1540 1542 1543 1544 1545 1546 1547 1547 1548 1549 1550 1551 1552 1553 1555 1557 1559 1561 1562 1562 1562 1562 1563 1563 1564 1566 1566 1566 1566 1567 1567 1567 1567 1567 1567 1568 1568 1568 1568 1569 1568 1568 1568 1567 1567 1566 1566 1567 1567 1567 1567 1568 1568 1568 1568 1568 1568
1509 1508 1508 1509 1509 1510 1511 1513 1514 1516 1517 1519 1521 1523 1525 1526 1527 1528 1530 1531 1532 1534 1535 1536 1537 1538 1539 1540 1540 1541 1543 1544 1545 1546 1546 1547 1548 1549 1550 1551 1552 1553 1555 1557 1559 1560 1561 1562 1562 1562 1562 1563 1564 1565 1566 1566 1566 1567 1567 1567 1567 1567 1567 1568 1568 1568 1568 1569 1569 1569 1568 1568 1567 1567 1567 1567 1567 1567 1568 1568 1568 1569 1569 1569 1569
1507 1508 1508 1508 1509 1510 1511 1513 1514 1516 1518 1520 1522 1524 1526 1527 1527 1528 1529 1531 1532 1533 1535 1536 1538 1539 1539 1540 1540 1541 1542 1544 1545 1545 1546 1547 1548 1549 1550 1551 1552 1553 1555 1557 1558 1560 1561 1561 1561 1561 1561 1562 1564 1565 1565 1565 1566 1567 1567 1566 1566 1567 1567 1568 1568 1568 1569 1569 1569 1569 1569 1568 1568 1567 1567 1567 1567 1568 1568 1569 1569 1569 1570 1570 1570
1505 1506 1507 1508 1509 1510 1511 1513 1515 1517 1519 1521 1523 1525 1526 1527 1527 1528 1529 1530 1532 1533 1534 1536 1537 1539 1540 1540 1541 1541 1542 1543 1545 1545 1546 1547 1547 1548 1549 1550 1552 1553 1555 1556 1558 1559 1559 1560 1560 1560 1561 1562 1563 1564 1564 1565 1566 1566 1566 1566 1565 1566 1567 1567 1568 1568 1568 1569 1569 1569 1569 1569 1568 1568 1567 1567 1568 1568 1569 1569 1570 1570 1570 1570 1571
1502 1504 1506 1507 1508 1510 1511 1513 1515 1517 1520 1522 1524 1525 1526 1527 1527 1528 1529 1530 1532 1532 1533 1535 1537 1538 1539 1540 1541 1541 1542 1543 1545 1545 1546 1547 1547 1548 1549 1550 1551 1552 1554 1556 1557 1558 1559 1559 1559 1560 1560 1561 1562 1563 1564 1565 1566 1565 1565 1565 1565 1566 1566 1567 1567 1567 1568 1568 1569 1569 1569 1569 1568 1568 1568 1568 1569 1569 1570 1570 1571 1571 1571 1571 1572
1501 1502 1504 1506 1508 1509 1511 1513 1515 1518 1520 1522 1524 1525 1525 1526 1527 1528 1529 1530 1532 1532 1533 1534 1536 1537 1538 1540 1541 1541 1542 1543 1545 1545 1546 1546 1547 1547 1548 1549 1550 1552 1554 1555 1557 1558 1559 1559 1559 1559 1560 1561 1562 1562 1564 1565 1565 1565 1565 1565 1565 1565 1566 1566 1567 1567 1568 1568 1569 1569 1569 1569 1569 1568 1568 1569 1569 1570 1571 1571 1572 1572 1573 1572 1572
1499 1501 1503 1505 1507 1509 1511 1512 1515 1518 1519 1521 1523 1523 1524 1526 1527 1528 1529 1530 1532 1532 1533 1534 1535 1536 1537 1539 1540 1541 1542 1543 1545 1545 1546 1546 1547 1547 1548 1549 1550 1552 1553 1555 1556 1558 1559 1559 1559 1559 1560 1560 1561 1562 1563 1564 1565 1565 1564 1565 1565 1565 1566 1566 1567 1567 1568 1568 1569 1570 1570 1569 1569 1569 1569 1570 1570 1571 1571 1572 1573 1573 1573 1573 1573
1498 1501 1503 1504 1506 1508 1510 1512 1515 1517 1519 1521 1521 1522 1523 1526 1527 1527 1528 1529 1531 1532 1533 1534 1535 1535 1537 1538 1540 1541 1542 1544 1544 1545 1546 1546 1547 1547 1548 1548 1549 1551 1553 1554 1556 1557 1558 1558 1558 1559 1559 1560 1561 1562 1563 1564 1564 1564 1564 1564 1564 1565 1565 1566 1566 1567 1567 1568 1569 1570 1570 1570 1570 1570 1570 1571 1571 1571 1572 1573 1573 1573 1574 1573 1573
1498 1500 1502 1503 1505 1506 1508 1511 1514 1516 1518 1519 1519 1520 1523 1525 1526 1527 1527 1528 1530 1531 1533 1534 1534 1535 1536 1537 1539 1541 1542 1543 1544 1545 1546 1546 1547 1547 1548 1548 1549 1551 1552 1553 1555 1557 1558 1558 1558 1558 1559 1560 1560 1562 1563 1563 1564 1563 1563 1563 1564 1565 1565 1566 1566 1566 1567 1568 1568 1569 1570 1570 1570 1570 1571 1571 1572 1572 1573 1573 1574 1574 1574 1574 1573
1497 1499 1500 1502 1503 1505 1508 1511 1513 1514 1516 1517 1516 1518 1522 1523 1524 1525 1526 1526 1527 1529 1531 1533 1534 1535 1535 1537 1538 1540 1541 1543 1544 1545 1545 1546 1546 1547 1547 1548 1549 1550 1551 1553 1555 1556 1557 1557 1557 1557 1559 1560 1560 1561 1562 1563 1563 1563 1563 1563 1563 1564 1564 1565 1566 1566 1567 1567 1568 1569 1570 1570 1571 1571 1571 1571 1572 1573 1573 1574 1574 1574 1574 1574 1574
1495 1497 1498 1500 1502 1504 1507 1510 1512 1513 1516 1518 1518 1519 1521 1521 1522 1523 1524 1524 1526 1528 1530 1531 1533 1534 1535 1536 1537 1539 1540 1542 1543 1544 1544 1545 1546 1546 1547 1547 1548 1549 1550 1552 1554 1555 1556 1556 1556 1557 1558 1559 1560 1561 1561 1562 1562 1562 1562 1562 1563 1563 1564 1564 1565 1566 1566 1567 1568 1568 1570 1571 1571 1571 1572 1572 1572 1573 1574 1574 1575 1575 1575 1574 1574
1494 1495 1497 1499 1501 1504 1506 1508 1509 1512 1515 1518 1519 1519 1519 1519 1520 1521 1522 1523 1526 1527 1528 1530 1532 1533 1534 1535 1536 1537 1539 1541 1542 1543 1543 1544 1545 1545 1546 1546 1547 1548 1549 1551 1553 1554 1554 1555 1556 1557 1557 1558 1560 1560 1560 1561 1562 1561 1561 1562 1562 1562 1563 1564 1564 1565 1566 1566 1567 1568 1569 1570 1571 1571 1572 1572 1573 1573 1574 1574 1575 1575 1575 1575 1575
1493 1495 1497 1499 1500 1503 1504 1506 1508 1510 1513 1515 1516 1516 1517 1518 1518 1519 1521 1523 1526 1527 1528 1530 1531 1532 1533 1533 1534 1536 1538 1539 1540 1541 1542 1543 1543 1544 1545 1546 1546 1547 1549 1551 1552 1552 1553 1554 1555 1556 1557 1558 1559 1560 1560 1560 1561 1561 1561 1561 1562 1562 1563 1563 1564 1564 1565 1566 1567 1568 1569 1570 1571 1572 1572 1573 1573 1574 1574 1575 1575 1575 1575 1575 1575
1494 1495 1496 1498 1499 1502 1504 1506 1507 1509 1511 1513 1514 1514 1516 1518 1518 1519 1521 1523 1525 1526 1528 1529 1530 1531 1532 1532 1533 1535 1536 1538 1539 1540 1541 1542 1542 1543 1544 1545 1546 1546 1548 1549 1550 1551 1552 1553 1554 1555 1556 1557 1558 1559 1560 1560 1560 1560 1561 1561 1562 1562 1562 1563 1563 1564 1564 1565 1566 1567 1569 1570 1570 1571 1572 1573 1573 1574 1574 1575 1575 1575 1575 1575 1575
1493 1493 1494 1496 1499 1501 1504 1505 1506 1507 1509 1512 1514 1513 1515 1519 1520 1520 1521 1522 1523 1525 1527 1528 1529 1530 1531 1532 1533 1534 1535 1536 1538 1538 1539 1540 1541 1542 1543 1544 1545 1546 1547 1548 1548 1549 1551 1552 1553 1554 1555 1556 1557 1558 1559 1559 1559 1560 1561 1562 1562 1562 1562 1563 1563 1564 1565 1565 1566 1567 1568 1570 1571 1571 1572 1573 1573 1574 1575 1575 1575 1576 1576 1575 1575
1491 1492 1494 1497 1499 1501 1503 1504 1505 1506 1507 1510 1512 1512 1515 1519 1520 1520 1521 1522 1523 1524 1525 1526 1527 1528 1529 1531 1532 1533 1534 1535 1537 1538 1538 1540 1541 1542 1543 1544 1545 1545 1546 1546 1547 1549 1550 1552 1552 1553 1554 1555 1555 1557 1558 1558 1559 1560 1561 1561 1562 1562 1562 1562 1563 1564 1565 1566 1567 1568 1569 1570 1570 1571 1572 1573 1573 1574 1575 1575 1576 1576 1576 1576 1576
1491 1493 1496 1498 1500 1501 1502 1503 1504 1504 1505 1508 1510 1511 1513 1515 1517 1518 1519 1520 1521 1522 1522 1524 1525 1526 1528 1529 1531 1532 1533 1534 1536 1537 1538 1539 1540 1541 1542 1543 1543 1544 1545 1546 1547 1548 1550 1551 1552 1552 1553 1554 1555 1556 1556 1557 1558 1560 1561 1561 1561 1561 1561 1562 1563 1564 1566 1566 1567 1568 1569 1569 1570 1571 1572 1573 1574 1574 1575 1575 1576 1576 1576 1576 1576
1490 1493 1496 1498 1499 1501 1502 1502 1502 1503 1504 1507 1508 1509 1511 1513 1514 1516 1517 1518 1519 1519 1521 1523 1524 1525 1527 1529 1530 1532 1532 1534 1535 1536 1537 1538 1539 1540 1541 1542 1542 1543 1544 1545 1546 1548 1549 1550 1551 1552 1553 1553 1554 1555 1555 1556 1557 1559 1560 1560 1561 1561 1561 1562 1562 1563 1565 1566 1567 1568 1569 1569 1570 1571 1572 1573 1574 1574 1575 1575 1575 1576 1576 1576 1576
1491 1492 1493 1495 1497 1499 1500 1501 1501 1501 1503 1506 1507 1508 1509 1511 1512 1514 1516 1518 1518 1518 1520 1521 1523 1525 1527 1528 1530 1531 1532 1533 1534 1536 1536 1537 1538 1539 1540 1540 1541 1542 1543 1544 1546 1547 1548 1549 1550 1551 1552 1553 1553 1554 1555 1556 1556 1557 1559 1559 1560 1561 1561 1562 1563 1563 1564 1565 1567 1568 1568 1569 1570 1571 1572 1573 1573 1574 1575 1575 1575 1576 1576 1576 1576
1492 1492 1492 1493 1493 1493 1493 1495 1496 1498 1501 1504 1506 1507 1508 1510 1511 1512 1515 1517 1517 1518 1519 1520 1522 1524 1525 1527 1529 1530 1531 1532 1533 1534 1535 1536 1537 1538 1539 1539 1540 1541 1542 1544 1545 1546 1547 1548 1548 1549 1551 1552 1553 1554 1555 1555 1556 1557 1558 1558 1560 1561 1561 1562 1563 1563 1564 1565 1566 1567 1568 1569 1570 1571 1572 1572 1573 1574 1575 1575 1575 1576 1576 1576 1577
1491 1492 1492 1493 1492 1490 1488 1489 1491 1494 1497 1500 1502 1504 1506 1507 1509 1510 1512 1514 1515 1517 1518 1518 1520 1521 1524 1526 1527 1529 1530 1531 1532 1533 1534 1535 1536 1537 1537 1538 1539 1540 1541 1543 1544 1545 1546 1547 1548 1549 1550 1551 1552 1553 1554 1555 1556 1557 1557 1558 1559 1559 1560 1561 1562 1562 1563 1564 1565 1566 1567 1568 1569 1570 1571 1572 1573 1574 1574 1575 1576 1576 1577 1577 1577
1492 1492 1492 1494 1495 1494 1492 1490 1491 1494 1496 1499 1501 1502 1504 1505 1507 1509 1511 1512 1514 1515 1516 1517 1518 1519 1521 1524 1525 1527 1528 1529 1530 1531 1533 1534 1535 1536 1537 1537 1538 1539 1541 1541 1542 1543 1545 1546 1547 1548 1549 1550 1551 1552 1553 1554 1555 1556 1556 1557 1558 1558 1559 1560 1560 1561 1562 1563 1564 1565 1566 1568 1569 1570 1571 1572 1573 1573 1574 1575 1576 1576 1577 1577 1577